Weather History for KIRS - October, 2012

Change the Weather History Date:

Monday, October 15, 2012

  Actual Average (KHAI) Record (KHAI)
Temperature  
Mean Temperature 44 °F -  
Max Temperature 50 °F 65 °F 85 °F (1989)
Min Temperature 37 °F 42 °F 27 °F (1993)
Degree Days  
Heating Degree Days 22    
Moisture  
Dew Point 44 °F    
Average Humidity 91    
Maximum Humidity 100    
Minimum Humidity 71    
Precipitation  
Precipitation 0.00 in - - ()
Sea Level Pressure  
Sea Level Pressure 29.84 in    
Wind  
Wind Speed 9 mph (WNW)    
Max Wind Speed 13 mph    
Max Gust Speed 25 mph    
Visibility 7 miles    
Events Rain    
Averages and records for this station are not official NWS values.
T = Trace of Precipitation, MM = Missing Value Source: NWS Daily Summary

Daily Weather History Graph

Daily Weather History Graph

Search for Another Location

Airport or City:

Trip Planner

Search our weather history database for the weather conditions in past years. The results will help you decide how hot, cold, wet, or windy it might be!

Date:

Astronomy

Oct. 15, 2012 Rise Set
Actual Time 7:54 AM EDT 6:59 PM EDT
Civil Twilight 7:26 AM EDT 7:27 PM EDT
Nautical Twilight 6:54 AM EDT 7:59 PM EDT
Astronomical Twilight 6:21 AM EDT 8:32 PM EDT
Moon 8:05 AM EDT (10/15) 6:57 PM EDT (10/15)
Length of Visible Light 12h 01m
Length of Day
11h 04m
New Moon, 0% of the Moon is Illuminated
Oct 15
New Moon
Oct 21
First Quarter
Oct 29
Full
Nov 6
Last Quarter
Nov 13
New

Hourly Weather History & Observations

Time (EDT) Temp. Windchill Dew Point Humidity Pressure Visibility Wind Dir Wind Speed Gust Speed Precip Events Conditions
12:15 AM 50.0 °F - 48.2 °F 94% 29.67 in 4.0 mi West 11.5 mph 25.3 mph N/A   Overcast
12:35 AM 50.0 °F - 48.2 °F 94% 29.67 in 4.0 mi West 12.7 mph 19.6 mph N/A   Overcast
12:55 AM 48.2 °F - 48.2 °F 100% 29.69 in 4.0 mi West 11.5 mph 17.3 mph N/A   Drizzle
1:15 AM 48.2 °F - 48.2 °F 100% 29.69 in 4.0 mi West 12.7 mph 19.6 mph N/A Rain Light Rain
1:35 AM 48.2 °F - 48.2 °F 100% 29.69 in 4.0 mi West 12.7 mph 25.3 mph N/A Rain Light Rain
1:55 AM 48.2 °F - 48.2 °F 100% 29.71 in 5.0 mi West 11.5 mph 21.9 mph N/A Rain Light Rain
2:14 AM 48.2 °F - 48.2 °F 100% 29.71 in 3.0 mi West 11.5 mph 19.6 mph N/A   Heavy Drizzle
2:35 AM 48.2 °F - 48.2 °F 100% 29.72 in 3.0 mi West 10.4 mph 17.3 mph N/A Rain Light Rain
2:55 AM 48.2 °F - 48.2 °F 100% 29.72 in 3.0 mi West 9.2 mph - N/A Rain Light Rain
3:14 AM 48.2 °F - 48.2 °F 100% 29.72 in 7.0 mi West 10.4 mph - N/A   Overcast
3:35 AM 48.2 °F - 46.4 °F 93% 29.72 in 2.5 mi West 9.2 mph - N/A Rain Light Rain
3:55 AM 48.2 °F - 46.4 °F 93% 29.72 in 3.0 mi West 12.7 mph 16.1 mph N/A Rain Light Rain
4:14 AM 48.2 °F - 46.4 °F 93% 29.72 in 3.0 mi West 10.4 mph 17.3 mph N/A Rain Light Rain
4:35 AM 48.2 °F - 46.4 °F 93% 29.72 in 3.0 mi West 11.5 mph 16.1 mph N/A   Overcast
4:55 AM 48.2 °F - 46.4 °F 93% 29.72 in 4.0 mi West 10.4 mph - N/A   Overcast
5:14 AM 48.2 °F - 46.4 °F 93% 29.72 in 5.0 mi West 9.2 mph - N/A   Overcast
5:55 AM 48.2 °F - 46.4 °F 93% 29.73 in 4.0 mi West 8.1 mph - N/A   Overcast
6:15 AM 48.2 °F - 46.4 °F 93% 29.74 in 3.0 mi NW 12.7 mph 23.0 mph N/A Rain Heavy Rain
6:35 AM 46.4 °F 43.5 °F 46.4 °F 100% 29.75 in 5.0 mi WNW 5.8 mph - N/A   Drizzle
6:54 AM 46.4 °F 44.3 °F 46.4 °F 100% 29.75 in 5.0 mi NW 4.6 mph - N/A   Drizzle
7:15 AM 46.4 °F 42.9 °F 46.4 °F 100% 29.76 in 5.0 mi NW 6.9 mph - N/A   Heavy Drizzle
7:35 AM 46.4 °F 44.3 °F 46.4 °F 100% 29.77 in 5.0 mi WNW 4.6 mph - N/A   Drizzle
7:54 AM 46.4 °F 43.5 °F 44.6 °F 93% 29.77 in 3.0 mi NNW 5.8 mph - N/A   Drizzle
8:15 AM 46.4 °F 42.4 °F 44.6 °F 93% 29.78 in 4.0 mi NW 8.1 mph - N/A   Drizzle
8:35 AM 46.4 °F 44.3 °F 44.6 °F 93% 29.79 in 4.0 mi NW 4.6 mph - N/A Rain Rain
8:54 AM 46.4 °F 44.3 °F 44.6 °F 93% 29.80 in 4.0 mi NW 4.6 mph - N/A   Heavy Drizzle
9:15 AM 46.4 °F 42.4 °F 44.6 °F 93% 29.80 in 3.0 mi NW 8.1 mph - N/A   Drizzle
9:35 AM 46.4 °F 43.5 °F 44.6 °F 93% 29.81 in 3.0 mi NW 5.8 mph - N/A   Overcast
9:54 AM 46.4 °F 43.5 °F 44.6 °F 93% 29.82 in 2.0 mi NW 5.8 mph - N/A Rain Light Rain
10:15 AM 46.4 °F 44.3 °F 46.4 °F 100% 29.82 in 10.0 mi NW 4.6 mph - N/A   Overcast
10:35 AM 46.4 °F 43.5 °F 46.4 °F 100% 29.83 in 10.0 mi WNW 5.8 mph - N/A   Overcast
10:55 AM 48.2 °F - 46.4 °F 93% 29.83 in 10.0 mi NW 5.8 mph - N/A   Overcast
11:15 AM 46.4 °F 41.5 °F 46.4 °F 100% 29.84 in 5.0 mi West 10.4 mph - N/A Rain Rain
11:34 AM 46.4 °F 41.9 °F 46.4 °F 100% 29.84 in 7.0 mi West 9.2 mph 16.1 mph N/A   Overcast
11:55 AM 46.4 °F 41.9 °F 44.6 °F 93% 29.85 in 10.0 mi West 9.2 mph - N/A   Overcast
12:15 PM 46.4 °F 42.9 °F 46.4 °F 100% 29.85 in 7.0 mi West 6.9 mph - N/A   Overcast
12:34 PM 46.4 °F 42.4 °F 46.4 °F 100% 29.86 in 7.0 mi West 8.1 mph - N/A   Overcast
12:55 PM 46.4 °F 42.4 °F 44.6 °F 93% 29.87 in 10.0 mi West 8.1 mph - N/A   Overcast
1:15 PM 46.4 °F 41.9 °F 44.6 °F 93% 29.87 in 10.0 mi West 9.2 mph - N/A   Overcast
1:35 PM 46.4 °F 42.4 °F 44.6 °F 93% 29.87 in 7.0 mi WNW 8.1 mph - N/A Rain Rain
1:55 PM 48.2 °F - 44.6 °F 87% 29.87 in 10.0 mi WNW 5.8 mph - N/A   Overcast
2:14 PM 48.2 °F - 44.6 °F 87% 29.87 in 10.0 mi WNW 4.6 mph - N/A   Overcast
2:35 PM 48.2 °F - 44.6 °F 87% 29.88 in 10.0 mi WNW 5.8 mph - N/A   Overcast
2:55 PM 46.4 °F 42.4 °F 44.6 °F 93% 29.88 in 10.0 mi NW 8.1 mph - N/A   Overcast
3:14 PM 48.2 °F - 44.6 °F 87% 29.89 in 10.0 mi WNW 8.1 mph - N/A   Overcast
3:35 PM 48.2 °F - 44.6 °F 87% 29.89 in 10.0 mi NW 8.1 mph - N/A   Overcast
3:55 PM 48.2 °F - 42.8 °F 82% 29.89 in 10.0 mi WNW 8.1 mph - N/A   Overcast
4:15 PM 48.2 °F - 44.6 °F 87% 29.90 in 10.0 mi NW 10.4 mph - N/A   Overcast
4:35 PM 48.2 °F - 42.8 °F 82% 29.90 in 10.0 mi NW 10.4 mph - N/A   Overcast
4:54 PM 48.2 °F - 42.8 °F 82% 29.91 in 10.0 mi NW 8.1 mph - N/A   Overcast
5:15 PM 48.2 °F - 42.8 °F 82% 29.89 in 10.0 mi NW 8.1 mph - N/A   Overcast
5:35 PM 48.2 °F - 41.0 °F 76% 29.91 in 10.0 mi WNW 8.1 mph - N/A   Overcast
5:54 PM 48.2 °F - 41.0 °F 76% 29.92 in 10.0 mi WNW 6.9 mph - N/A   Overcast
6:15 PM 48.2 °F - 41.0 °F 76% 29.93 in 10.0 mi WNW 5.8 mph - N/A   Overcast
6:35 PM 48.2 °F - 39.2 °F 71% 29.92 in 10.0 mi NNW 8.1 mph - N/A   Overcast
6:54 PM 46.4 °F 43.5 °F 39.2 °F 76% 29.93 in 10.0 mi NW 5.8 mph - N/A   Overcast
7:15 PM 46.4 °F 42.9 °F 39.2 °F 76% 29.93 in 10.0 mi NNW 6.9 mph - N/A   Overcast
7:35 PM 46.4 °F 42.4 °F 39.2 °F 76% 29.93 in 10.0 mi NW 8.1 mph - N/A   Overcast
7:55 PM 46.4 °F 44.3 °F 39.2 °F 76% 29.94 in 10.0 mi WNW 4.6 mph - N/A   Overcast
8:15 PM 46.4 °F - 39.2 °F 76% 29.94 in 10.0 mi Calm Calm - N/A   Overcast
8:34 PM 44.6 °F - 39.2 °F 81% 29.94 in 10.0 mi Calm Calm - N/A   Overcast
8:55 PM 42.8 °F - 37.4 °F 81% 29.94 in 10.0 mi Calm Calm - N/A   Scattered Clouds
9:15 PM 42.8 °F - 37.4 °F 81% 29.95 in 10.0 mi Calm Calm - N/A   Clear
9:35 PM 41.0 °F - 37.4 °F 87% 29.96 in 10.0 mi Calm Calm - N/A   Clear
9:55 PM 39.2 °F - 37.4 °F 93% 29.96 in 10.0 mi Calm Calm - N/A   Clear
10:14 PM 39.2 °F - 37.4 °F 93% 29.96 in 10.0 mi Calm Calm - N/A   Clear
10:35 PM 37.4 °F - 37.4 °F 100% 29.96 in 7.0 mi Calm Calm - N/A   Clear
10:55 PM 37.4 °F - 37.4 °F 100% 29.96 in 7.0 mi Calm Calm - N/A   Clear
11:14 PM 37.4 °F - 35.6 °F 93% 29.96 in 7.0 mi Calm Calm - N/A   Clear
11:35 PM 37.4 °F - 37.4 °F 100% 29.97 in 10.0 mi Calm Calm - N/A   Clear
11:55 PM 37.4 °F - 35.6 °F 93% 29.97 in 10.0 mi Calm Calm - N/A   Clear